INMARSAT GX5

Last updated on Thu Nov 21 2024 00:02:44 GMT+0000 (Coordinated Universal Time)

1 44801U 19080B 24325.25465987 .00000077 00000+0 00000+0 0 9999 2 44801 0.0379 357.9398 0002725 265.2715 259.2347 1.00275506 1049
UTC large
Height (km)
Speed (km/s)
/
Latitude / Longitude
Inclination (degrees)
Orbital Period (minutes)
Azimuth
Elevation
Range (km)
Doppler Factor

Next 0 passes for location: London (51.5072 / 0.1276)

Sorry there are no passes over London.